Location: Newark
(45.2500°N, 7.5833°E)
Time: 02:34:43
(UTC+00:00)

A-11 Canister half - Pass Details

Date: 05 February 2020
Orbit: 1524 x 1684 km, 47.3° (Epoch: 26 February)

Event Time Altitude Azimuth Distance (km) Brightness Sun altitude
Rises 18:29:25 0° 286° (WNW) 4,684 12.9 -19.2°
Reaches altitude 10° 18:32:26 10° 286° (WNW) 3,710 12.1 -19.7°
Maximum altitude 18:41:50 87° 200° (SSW) 1,569 9.0 -21.4°
Enters shadow 18:47:17 31° 113° (ESE) 2,522 9.6 -22.4°
